Briefing drone pour Neuvy-saint-sepulchre

Rechercher une autre localisation

Conditions de vol :


Nous sommes le : Lundi 28 septembre 2020
Il est 14:21 UTC (16:21 LT)

Lever de soleil : 05:21 UTC (07:21 LT)
Coucher de soleil : 18:04 UTC (20:04 LT)

Météo

L'essentiel des conditions de vol

VIGILANCE MÉTÉO FRANCE - Indre (36)
Pas de vigilances particulieres
METAR de LFLX
LFLX 281400Z AUTO 28010KT CAVOK 16/09 Q1015 NOSIG

Date d'émission: 28/09/2020
Heure d'émission: 14:00 UTC
Vent: 280° pour 10 KT (19 km/h)
Visibilité horizontale: > 10 km
Plafond : Plafond et visibilité OK (CAVOK)
Température: 16 °C
Point de rosée: 9 °C
Humidité: 63%
Pression (QNH): 1015 hPa
Conditions: Pas de changement dans les 2 heures (NOSIG)
TAF de LFLX
LFLX 281100Z 2812/2918 27008KT 9999 BKN030

Conditions prévues :

Heure d'émission : Bulletin éffectué le 28 à 12:00 UTC
Prévision : Valide du 28 a 12:00 UTC au 29 a 18:00 UTC
Vent : 270° pour 8 KT (15 km/h)
Visibilité : > 10 km
Nuages : Nuages morcelés à 3000ft (914 m)
WEBCAM POUR NEUVY-SAINT-SEPULCHRE

Réglementation

Voler en sécurité

CARTES AERONAUTIQUE 1/500.000
CARTES VAC (LFLX)
SUP AIP




Chargement des AIP...
NOTAM (NEUVY-SAINT-SEPULCHRE + Terrain à proximité / FIR )




Chargement des NOTAMS...
CONTACT PREFECTURE 36


Avertissement : Les données mises à disposition sont indicatives. Oxygène Drone ne pourra être tenu responsable de dégâts causés aux biens et aux personnes.